sat.trackr.live / text

‹ back to catalog

STARLINK-34524

NORAD 64431 · 2025-129V

PAYLOAD ACTIVE UNKNOWN

§ Identity

Operator
Country
US
Launch date
2025-06-17
Launch site
AFWTR
Launch vehicle
Mass (kg)
RCS (m²)

Purposes: comms

External: N2YO · Heavens-Above · Gunter

§ Orbital elements

Epoch: 2026-05-25T05:26:24.553248Z

Period
96.11 min
Inclination
70.0006°
Eccentricity
0.0003717
Mean motion
14.98337651 rev/d
Perigee alt
569.4 km
Apogee alt
574.6 km
Semi-major
6,950.2 km
B*
2.5135e-4
RAAN
241.4022°
Arg perigee
270.0366°
Mean anomaly
90.0367°
Rev number
5,269

§ Raw data

STARLINK-345241 64431U 25129V   26145.22667307  .00002908  00000+0  25135-3 0  99952 64431  70.0006 241.4022 0003717 270.0366  90.0367 14.98337651 52694

JSON: /api/v1/satellites/64431 · /tle

For live sub-satellite position, see the globe view (requires WebGL).

§ Visibility from observer

Set your observer location to see the next 7 days of passes ≥ 10°. The values pass through the URL so the page stays shareable.

No JS? Fill the form by hand. The geolocation button needs JavaScript.